TimeEST,TemperatureF,Dew PointF,Humidity,Sea Level PressureIn,VisibilityMPH,Wind Direction,Wind SpeedMPH,Gust SpeedMPH,PrecipitationIn,Events,Conditions,WindDirDegrees,DateUTC
12:53 AM,27.0,18.0,69,29.97,10.0,Variable,6.9,-,N/A,,Overcast,0,2013-02-24 05:53:00
1:53 AM,26.1,18.0,71,29.99,10.0,Variable,4.6,-,N/A,,Overcast,0,2013-02-24 06:53:00
2:53 AM,26.1,18.0,71,30.00,10.0,Calm,Calm,-,N/A,,Overcast,0,2013-02-24 07:53:00
3:53 AM,26.1,18.0,71,30.00,10.0,Variable,4.6,-,N/A,,Overcast,0,2013-02-24 08:53:00
4:53 AM,26.1,18.0,71,30.01,10.0,WSW,3.5,-,N/A,,Overcast,250,2013-02-24 09:53:00
5:40 AM,26.6,19.4,74,29.99,10.0,WSW,4.6,-,N/A,,Overcast,250,2013-02-24 10:40:00
5:53 AM,27.0,19.0,72,30.02,10.0,WSW,4.6,-,N/A,,Overcast,250,2013-02-24 10:53:00
6:53 AM,27.0,19.0,72,30.03,10.0,SW,5.8,-,N/A,,Overcast,230,2013-02-24 11:53:00
7:53 AM,27.0,19.0,72,30.05,10.0,WSW,5.8,-,N/A,,Overcast,240,2013-02-24 12:53:00
8:53 AM,28.0,19.0,69,30.07,10.0,WSW,6.9,-,N/A,,Overcast,250,2013-02-24 13:53:00
9:53 AM,30.0,19.9,66,30.08,10.0,WSW,9.2,-,N/A,,Mostly Cloudy,250,2013-02-24 14:53:00
10:53 AM,30.0,21.9,72,30.10,9.0,West,6.9,-,N/A,,Overcast,260,2013-02-24 15:53:00
11:53 AM,30.9,21.9,69,30.11,10.0,Variable,5.8,-,N/A,,Overcast,0,2013-02-24 16:53:00
12:53 PM,34.0,23.0,64,30.11,10.0,Variable,5.8,-,N/A,,Scattered Clouds,0,2013-02-24 17:53:00
1:46 PM,35.6,23.0,60,30.08,10.0,Variable,3.5,-,N/A,,Mostly Cloudy,0,2013-02-24 18:46:00
1:53 PM,35.1,23.0,61,30.11,10.0,Variable,6.9,-,N/A,,Mostly Cloudy,0,2013-02-24 18:53:00
2:10 PM,35.6,21.2,56,30.08,10.0,Variable,4.6,-,N/A,,Mostly Cloudy,0,2013-02-24 19:10:00
2:53 PM,36.0,23.0,59,30.11,10.0,WNW,8.1,-,N/A,,Overcast,300,2013-02-24 19:53:00
3:53 PM,36.0,23.0,59,30.12,10.0,Variable,5.8,-,N/A,,Overcast,0,2013-02-24 20:53:00
4:53 PM,36.0,23.0,59,30.13,10.0,Variable,4.6,-,N/A,,Clear,0,2013-02-24 21:53:00
5:53 PM,35.1,23.0,61,30.14,10.0,Calm,Calm,-,N/A,,Overcast,0,2013-02-24 22:53:00
6:53 PM,35.1,23.0,61,30.15,10.0,Calm,Calm,-,N/A,,Overcast,0,2013-02-24 23:53:00
8:53 PM,34.0,24.1,67,30.18,10.0,Calm,Calm,-,N/A,,Overcast,0,2013-02-25 01:53:00
9:53 PM,33.1,24.1,70,30.18,10.0,Calm,Calm,-,N/A,,Overcast,0,2013-02-25 02:53:00
10:53 PM,33.1,23.0,66,30.18,10.0,West,3.5,-,N/A,,Overcast,260,2013-02-25 03:53:00
11:53 PM,30.9,23.0,72,30.18,10.0,Calm,Calm,-,N/A,,Partly Cloudy,0,2013-02-25 04:53:00